Tracking 25370 objects as of 25-Jan-2022
HD Live streaming from Space Station
objects crossing your sky now

STARLINK-2388

Track STARLINK-2388 now!
10-day predictions
STARLINK-2388 is classified as:


NORAD ID: 47807
Int'l Code: 2021-018W
Perigee: 553.4 km
Apogee: 555.3 km
Inclination: 53.1 °
Period: 95.6 minutes
Semi major axis: 6925 km
RCS: Unknown
Launch date: March 11, 2021
Source: United States (US)
Launch site: AIR FORCE EASTERN TEST RANGE (AFETR)
aabbcc
Your satellite tracking list
Your tracking list is empty




NASA's NSSDC Master Catalog

Two Line Element Set (TLE):
1 47807U 21018W   22024.72717939  .00000485  00000-0  51453-4 0  9992
2 47807  53.0559 137.6500 0001382  72.6599 287.4541 15.06399279 50174
Source of the keplerian elements: AFSPC